Mount Holly, NJ

11:49 AM EST on December 12, 2019 (GMT -0500)
South Jersey Regional

Weather History for KVAY - October, 2019

Change the Weather History Date:

Friday, October 18, 2019

  Actual Average (WUND) Record (WUND)
Temperature  
Mean Temperature 50 °F -  
Max Temperature 61 °F - - (-1)
Min Temperature 39 °F - - (-1)
Degree Days  
Heating Degree Days 16    
Moisture  
Dew Point 38 °F    
Average Humidity 65    
Maximum Humidity 93    
Minimum Humidity 44    
Precipitation  
Precipitation 0.00 in - - ()
Sea Level Pressure  
Sea Level Pressure 29.88 in    
Wind  
Wind Speed 8 mph (NW)    
Max Wind Speed 17 mph    
Max Gust Speed 23 mph    
Visibility 10 miles    
Events      
Averages and records for this station are not official NWS values.
T = Trace of Precipitation, MM = Missing Value Source: NWS Daily Summary

Daily Weather History Graph

Daily Weather History Graph

Search for Another Location

Airport or City:

Astronomy

Oct. 18, 2019 Rise Set
Actual Time 7:12 AM EDT 6:15 PM EDT
Civil Twilight 6:45 AM EDT 6:43 PM EDT
Nautical Twilight 6:13 AM EDT 7:14 PM EDT
Astronomical Twilight 5:42 AM EDT 7:45 PM EDT
Moon 9:30 PM EDT (10/18) 11:43 AM EDT (10/18)
Length of Visible Light 11h 57m
Length of Day
11h 03m
Waning Gibbous, 79% of the Moon is Illuminated
Oct 18
Waning Gibbous
Oct 21
Last Quarter
Oct 27
New
Nov 4
First Quarter
Nov 12
Full

Hourly Weather History & Observations

Time (EDT) Temp. Windchill Dew Point Humidity Pressure Visibility Wind Dir Wind Speed Gust Speed Precip Events Conditions
12:54 AM 52.0 °F - 39.9 °F 63% 29.72 in 10.0 mi West 10.4 mph - N/A   Overcast
1:54 AM 52.0 °F - 39.0 °F 61% 29.73 in 10.0 mi WNW 9.2 mph - N/A   Overcast
2:54 AM 51.1 °F - 37.9 °F 61% 29.74 in 10.0 mi Variable 6.9 mph - N/A   Clear
3:54 AM 50.0 °F - 37.9 °F 63% 29.75 in 10.0 mi West 6.9 mph - N/A   Clear
4:54 AM 48.9 °F - 37.9 °F 66% 29.76 in 10.0 mi West 5.8 mph - N/A   Clear
5:54 AM 48.9 °F - 39.0 °F 69% 29.79 in 10.0 mi West 5.8 mph - N/A   Clear
6:54 AM 48.0 °F - 37.9 °F 68% 29.81 in 10.0 mi WSW 4.6 mph - N/A   Clear
7:54 AM 48.9 °F - 39.0 °F 69% 29.83 in 10.0 mi West 4.6 mph - N/A   Mostly Cloudy
8:54 AM 51.1 °F - 39.0 °F 63% 29.86 in 10.0 mi Variable 5.8 mph - N/A   Overcast
9:54 AM 53.1 °F - 39.0 °F 59% 29.87 in 10.0 mi NNW 11.5 mph 19.6 mph N/A   Overcast
10:54 AM 54.0 °F - 37.9 °F 55% 29.88 in 10.0 mi NW 9.2 mph - N/A   Overcast
11:54 AM 55.9 °F - 39.0 °F 53% 29.88 in 10.0 mi NNW 10.4 mph 19.6 mph N/A   Overcast
12:54 PM 57.9 °F - 39.0 °F 49% 29.88 in 10.0 mi North 17.3 mph 23.0 mph N/A   Scattered Clouds
1:54 PM 57.9 °F - 39.0 °F 49% 29.89 in 10.0 mi NNW 12.7 mph 21.9 mph N/A   Mostly Cloudy
2:54 PM 59.0 °F - 37.9 °F 46% 29.90 in 10.0 mi NNW 13.8 mph - N/A   Scattered Clouds
3:54 PM 60.1 °F - 37.9 °F 44% 29.90 in 10.0 mi NNW 12.7 mph - N/A   Partly Cloudy
4:54 PM 57.9 °F - 37.9 °F 47% 29.91 in 10.0 mi North 11.5 mph - N/A   Clear
5:54 PM 55.9 °F - 37.0 °F 49% 29.93 in 10.0 mi North 3.5 mph - N/A   Clear
6:54 PM 48.0 °F - 39.0 °F 71% 29.95 in 10.0 mi Calm Calm - N/A   Clear
7:54 PM 45.0 °F - 39.9 °F 82% 29.98 in 10.0 mi Calm Calm - N/A   Clear
8:54 PM 43.0 °F - 39.0 °F 86% 30.01 in 10.0 mi Calm Calm - N/A   Clear
9:54 PM 41.0 °F 39.0 °F 39.0 °F 93% 30.04 in 10.0 mi South 3.5 mph - N/A   Clear
10:54 PM 39.9 °F - 37.9 °F 93% 30.04 in 10.0 mi Calm Calm - N/A   Clear
11:54 PM 39.0 °F - 37.0 °F 93% 30.04 in 10.0 mi Calm Calm - N/A   Clear